Skip Page Navigation
NASA JPL Caltech
NASA Logo - Jet Propulsion Laboratory + View the NASA Portal
+ Center for Near-Earth Object Studies
JPL Home Earth Solar System Stars & Galaxies Technology
JPL Solar System Dynamics
BODIES ORBITS EPHEMERIDES TOOLS PHYSICAL DATA DISCOVERY FAQ SITE MAP
IMPORTANT: The SSD Announcement email list is now available. Major changes are coming in the near future, including possible hostname and/or URL changes. To be notified of such changes, subscribe to this email list.

Please visit this page for more details.


JPL Small-Body Database Browser
Search: [ help ]  
185507 (2007 TE335)
Classification: Main-belt Asteroid          SPK-ID: 2185507
Ephemeris | Orbit Diagram | Orbital Elements | Mission Design | Physical Parameters | Discovery Circumstances ]

[ show orbit diagram ]
Orbital Elements at Epoch 2459000.5 (2020-May-31.0) TDB
Reference: JPL 10 (heliocentric ecliptic J2000)
 Element Value Uncertainty (1-sigma)   Units 
e .1710349008542974 8.3025e-08  
a 2.459194667957208 1.761e-08 au
q 2.03858655174173 1.9397e-07 au
i .6480979592383537 6.0433e-06 deg
node 244.0052196791093 0.00064274 deg
peri 189.9540878216986 0.00064357 deg
M 75.65713758606817 3.3841e-05 deg
tp 2458704.470361350517
(2019-Aug-08.97036135)
0.00013004 TDB
period 1408.600342467069
3.86
1.5131e-05
4.143e-08
d
yr
n .2555728471352521 2.7452e-09 deg/d
Q 2.879802784172686 2.0622e-08 au
  Orbit Determination Parameters
   # obs. used (total)      208  
   data-arc span      8888 days (24.33 yr)  
   first obs. used      1995-10-02  
   last obs. used      2020-02-01  
   planetary ephem.      DE431  
   SB-pert. ephem.      SB431-N16  
   condition code      0  
   norm. resid. RMS      .55899  
   source      ORB  
   producer      Otto Matic  
   solution date      2020-Feb-24 20:05:56  

Additional Information
 Earth MOID = 1.05354 au 
 Jupiter MOID = 2.38309 au 
 T_jup = 3.470 
[ hide covariance matrix ]
Orbital Elements at Epoch 2457083.5 (2015-Mar-02.0) TDB
Reference: JPL 10 (heliocentric ecliptic J2000)
 Element Value Uncertainty (1-sigma)   Units 
e .1694663617905263 8.3281e-08  
q 2.043044536892414 1.9431e-07 au
tp 2457295.422889718725
(2015-Sep-29.92288972)
0.0001214 TDB
node 244.2184472556735 0.00064471 deg
peri 189.7892432467623 0.00064557 deg
i .6456029073363347 6.0494e-06 deg
  Orbit Determination Parameters
   # obs. used (total)      208  
   data-arc span      8888 days (24.33 yr)  
   first obs. used      1995-10-02  
   last obs. used      2020-02-01  
   planetary ephem.      DE431  
   SB-pert. ephem.      SB431-N16  
   condition code      0  
   norm. resid. RMS      .55899  
   source      ORB  
   producer      Otto Matic  
   solution date      2020-Feb-24 20:05:56  

Additional Information
 Jupiter MOID = 2.38309 au 
 T_jup = 3.470 
Orbit Covariance (6×6)
  e q tp node peri i
e 6.935647228259954E-15 -1.616032128528555E-14 8.176001110506407E-12 1.451645784418425E-13 2.186747149683216E-12 -9.300649352858979E-16
q -1.616032128528555E-14 3.775744494830457E-14 -1.887790426779845E-11 -3.347150829222504E-13 -5.052254973496789E-12 2.164429028246672E-15
tp 8.176001110506407E-12 -1.887790426779845E-11 1.473731630902923E-8 2.14185205809185E-10 4.099047677202326E-9 -1.249804056196919E-12
node 1.451645784418425E-13 -3.347150829222504E-13 2.14185205809185E-10 4.15654675276222E-7 -4.155658447843931E-7 2.403665935840021E-9
peri 2.186747149683216E-12 -5.052254973496789E-12 4.099047677202326E-9 -4.155658447843931E-7 4.16755138271683E-7 -2.403871878010064E-9
i -9.300649352858979E-16 2.164429028246672E-15 -1.249804056196919E-12 2.403665935840021E-9 -2.403871878010064E-9 3.659497624039655E-11

Ephemeris | Orbit Diagram | Orbital Elements | Mission Design | Physical Parameters | Discovery Circumstances ]

Physical Parameter Table
Parameter Symbol Value Units Sigma Reference Notes
absolute magnitude H 17.7   n/a MPO454277  

185507 (2007 TE335)          Discovered 2007-Oct-11 by Spacewatch at Kitt Peak
Reference: 20080420/Numbers.arcLast Updated: 2008-04-23

Alternate Designations
 2007 TE335 = 1997 EV19 = 2003 UM414 
Ephemeris | Orbit Diagram | Orbital Elements | Mission Design | Physical Parameters | Discovery Circumstances ]
ABOUT SSD CREDITS/AWARDS PRIVACY/COPYRIGHT GLOSSARY LINKS
FirstGov 2020-Apr-09 11:34 UT
(server date/time)  
NASA Home Page
Site Manager:   Ryan S. Park
Webmaster  Alan B. Chamberlin